Theta_e
314 314 314 313 313 313 313 313 313 312 312 312 311 311 310 309 309 308 307 306 306 305 305 304 304 304 305 305 305 305 305 305 305 304 304 304 303 303 303 303 302 302 302 302 302 302 302 302 302 302 301 300
314 313 313 313 313 313 313 313 313 312 312 311 311 310 310 309 309 307 306 305 304 304 304 305 305 305 305 305 305 305 305 304 304 304 304 303 303 303 302 302 301 301 301 301 301 301 301 301 301 301 301 301
313 314 313 313 313 313 313 313 313 312 311 310 310 309 308 308 307 305 304 304 304 305 305 305 305 305 305 305 304 304 304 304 304 304 303 303 303 302 302 302 301 300 300 299 299 299 299 300 300 300 300 300
314 314 314 313 313 313 313 313 312 311 310 309 309 308 307 306 305 304 304 304 305 305 305 305 304 304 304 304 304 304 304 303 303 303 303 303 302 302 301 300 300 299 298 298 298 298 298 298 298 298 298 299
314 314 313 313 313 313 313 313 312 310 309 308 307 306 305 305 304 304 304 304 304 304 304 304 304 304 304 304 303 304 303 303 303 303 303 302 301 300 299 299 298 297 297 296 296 296 296 296 296 297 297 297
313 313 313 313 313 313 312 311 309 308 308 307 306 305 305 305 305 305 305 305 305 304 304 304 304 304 304 303 303 303 303 302 302 301 301 300 299 298 297 296 296 295 295 294 294 294 294 294 295 295 295 295
312 313 312 312 312 312 310 308 307 307 307 306 305 305 305 305 305 305 305 305 304 304 304 304 304 303 303 303 302 302 301 301 300 299 298 296 295 294 293 293 292 291 291 290 290 290 291 291 292 292 293 293
311 312 311 311 310 309 308 307 307 307 306 306 306 305 305 305 305 305 304 304 304 303 303 303 303 302 302 301 301 300 299 298 296 295 293 292 291 290 289 288 288 287 287 287 287 287 287 287 288 289 290 291
309 310 309 308 308 308 307 307 307 306 306 306 305 305 305 305 304 304 304 303 303 303 302 302 301 301 300 299 298 296 294 293 291 290 289 288 287 287 286 286 285 285 285 285 285 285 285 285 285 285 286 287
308 309 308 307 307 308 308 307 307 306 306 305 305 305 304 304 304 303 303 303 302 301 301 300 300 299 297 295 294 292 290 289 287 287 286 286 285 285 285 284 284 284 284 284 284 284 283 283 283 283 283 284
307 307 307 307 308 308 307 307 306 306 305 305 305 304 304 304 303 303 302 301 301 300 299 298 297 295 293 291 290 288 287 287 286 286 285 285 284 284 284 284 284 283 283 283 283 283 282 282 282 282 282 282
307 307 307 307 308 307 306 306 305 305 305 305 304 304 303 303 302 302 301 300 299 298 297 296 294 291 289 288 287 286 286 286 285 285 284 284 284 283 283 283 283 283 282 282 282 282 282 282 281 281 281 281
306 307 307 307 307 306 305 305 305 305 304 304 304 303 303 302 301 300 300 299 298 296 294 292 289 288 287 286 286 285 285 285 284 284 284 283 283 283 283 282 282 282 282 282 282 281 281 281 280 280 280 280
306 306 306 306 305 305 305 304 304 304 304 303 303 302 301 300 299 299 298 297 295 293 290 288 287 286 286 285 285 285 285 284 283 283 283 283 283 283 283 282 282 282 282 281 281 281 281 280 279 279 279 278
306 305 305 305 305 305 304 304 304 303 303 302 301 300 300 299 298 298 296 294 291 289 288 286 286 286 285 285 284 284 283 283 283 282 282 282 282 282 282 281 281 281 281 281 281 280 280 280 279 278 278 278
305 305 305 305 305 304 304 304 303 302 302 301 300 299 298 298 297 295 293 290 288 287 286 285 285 285 285 284 283 283 283 282 282 282 282 282 281 281 281 281 281 280 280 280 279 279 279 279 278 278 277 277
305 305 305 305 304 304 303 303 302 301 300 299 299 298 297 296 294 291 289 287 286 285 285 285 284 284 284 283 282 282 282 282 282 282 281 281 281 281 281 281 280 279 279 278 278 278 278 277 277 277 277 277
305 305 304 304 304 303 302 301 301 300 299 298 298 297 295 293 290 288 286 285 285 284 284 284 284 283 283 282 282 282 281 281 281 281 281 281 281 281 281 281 280 279 279 278 278 278 277 277 276 276 276 276
304 304 304 303 303 302 301 300 300 299 298 297 296 294 291 289 287 285 285 284 284 283 283 283 283 283 282 281 281 281 280 279 279 280 281 281 282 282 282 281 280 280 279 279 278 278 277 276 276 276 276 276
304 304 303 302 302 301 300 299 299 298 297 295 293 290 288 286 285 284 284 283 283 283 283 282 282 282 281 280 280 280 279 279 280 280 280 281 281 282 282 281 281 280 279 279 278 277 277 277 276 276 276 276
303 303 302 301 300 300 299 299 298 297 295 292 289 287 286 284 284 283 283 282 282 282 282 281 281 281 280 280 280 280 280 280 280 280 280 281 281 281 281 281 281 280 279 278 278 278 277 277 276 275 276 275
302 302 301 300 299 299 298 298 297 295 291 289 286 285 284 283 283 282 282 282 282 282 281 281 280 280 280 280 280 281 281 280 280 280 280 280 280 280 280 280 280 279 279 278 278 278 277 277 276 275 275 275
301 300 300 299 298 298 298 297 294 291 288 286 285 284 283 283 282 282 282 282 281 281 281 280 280 280 280 281 281 281 281 281 280 279 280 280 280 279 279 279 279 279 279 279 278 277 277 276 276 275 274 275
300 299 299 298 298 298 297 295 291 288 286 285 283 283 282 282 282 282 281 281 281 281 280 280 280 280 281 281 281 281 281 280 280 279 279 279 279 279 279 279 279 279 279 280 279 278 277 276 276 275 274 275
299 298 298 298 298 297 295 291 288 286 284 283 283 282 282 282 282 281 281 281 280 280 280 280 280 281 281 281 281 280 279 279 279 279 278 278 278 278 278 278 279 279 279 280 280 279 278 277 276 276 275 275
298 298 298 298 297 295 291 288 286 285 284 283 282 282 282 282 281 281 281 281 280 281 281 281 281 281 281 280 279 279 278 278 278 279 278 277 277 276 277 276 277 277 278 279 278 278 278 277 276 276 275 275
298 298 298 297 295 291 288 286 285 284 283 282 282 282 282 281 281 281 281 281 280 281 281 281 281 280 280 279 279 278 278 278 278 278 277 277 277 276 276 276 275 276 276 276 276 276 276 275 275 275 276 276
298 297 297 295 292 288 286 285 283 283 282 282 282 281 281 281 281 281 281 280 280 280 280 280 280 279 279 278 278 278 278 278 278 277 277 277 276 276 276 275 275 275 274 274 275 275 273 273 273 272 274 276
297 296 295 292 288 286 285 284 283 282 282 282 281 281 281 281 280 280 280 280 280 280 280 280 279 279 278 278 278 278 278 277 277 277 276 276 276 276 275 275 275 274 274 273 273 272 271 270 269 269 270 273
296 294 292 289 286 285 284 283 283 282 282 281 281 281 280 280 280 280 280 280 280 280 280 279 278 278 278 277 277 277 277 277 276 276 276 276 275 275 275 274 275 274 273 273 272 272 271 269 268 268 269 269
294 292 289 286 285 284 283 283 283 282 281 281 280 280 280 280 280 280 280 279 279 279 279 278 278 277 277 277 277 277 277 276 276 276 276 275 275 275 275 275 275 274 273 273 272 272 271 271 270 269 269 267
Wind_Speed
6 7 8 7 6 5 5 7 9 11 11 13 14 14 15 16 16 16 16 16 15 16 16 16 17 18 19 19 20 21 22 23 24 25 26 27 28 29 30 30 30 30 30 31 31 32 33 33 33 33 33 33
6 6 5 3 3 5 6 8 10 11 13 14 15 15 16 16 16 15 15 15 15 16 16 17 18 18 19 20 21 22 23 24 26 27 28 29 30 32 32 32 32 32 32 32 32 32 33 33 32 32 32 33
4 3 3 4 5 6 7 9 11 13 14 15 15 15 15 15 14 14 14 14 15 16 17 17 18 19 19 20 22 23 25 26 28 29 30 32 33 34 35 35 35 35 34 33 32 32 32 32 31 31 31 31
3 3 5 6 6 7 9 10 12 13 14 14 14 14 14 13 13 13 13 14 15 16 17 18 18 19 21 22 23 25 27 28 30 32 33 34 35 36 37 37 36 36 35 34 32 31 31 31 31 30 30 29
5 4 5 6 7 8 9 10 12 12 12 13 13 13 13 12 12 13 14 15 16 17 18 19 20 21 23 24 26 28 30 32 33 34 35 36 37 37 37 36 36 35 34 33 32 32 31 30 30 29 29 28
5 5 5 6 7 8 9 10 11 11 12 12 12 12 12 12 13 14 16 17 18 19 20 21 22 24 26 27 29 30 32 33 34 35 35 36 35 35 35 35 34 34 33 32 32 32 31 31 30 29 28 28
5 5 5 6 7 7 8 9 10 10 11 11 12 12 12 13 14 15 17 18 19 20 21 23 25 26 28 29 30 31 32 33 33 33 33 33 33 32 32 32 32 32 31 31 31 31 31 30 30 29 28 28
4 4 5 5 5 6 7 9 9 10 11 11 12 12 13 13 14 15 16 17 19 21 22 24 26 27 28 29 30 31 31 31 31 30 30 30 30 30 30 30 30 30 30 29 29 29 29 28 28 28 27 26
4 4 5 5 5 6 8 8 9 10 11 11 12 12 13 14 15 16 17 19 21 22 24 26 27 29 30 31 32 32 32 32 31 31 30 30 30 30 30 30 30 30 30 29 29 28 27 27 26 25 25 25
4 4 4 6 6 7 7 7 9 10 10 11 13 13 14 15 16 17 19 21 23 25 27 28 30 31 32 34 34 34 34 34 33 33 32 32 32 31 31 30 30 30 30 29 29 28 27 26 25 25 24 23
4 4 4 5 6 6 6 8 10 11 11 13 14 15 16 17 18 20 22 24 26 28 30 31 32 33 34 34 34 34 34 33 33 33 33 32 31 31 30 29 29 29 29 29 28 28 27 26 25 25 24 23
4 4 5 5 5 6 8 10 11 12 13 15 16 17 18 20 22 24 26 28 30 31 32 33 33 33 32 33 33 32 32 32 33 33 32 32 32 31 31 30 30 30 30 29 29 28 28 27 26 26 25 24
3 3 5 5 6 8 10 11 12 13 15 16 17 19 21 23 25 27 29 30 31 31 31 31 31 31 31 31 31 31 32 33 33 32 32 32 32 32 32 32 31 31 30 30 29 29 28 28 27 26 25 25
2 4 4 5 7 10 11 12 13 14 15 17 19 21 23 25 26 28 29 30 30 30 30 29 29 30 30 30 30 31 31 32 32 32 32 32 32 31 31 31 30 30 29 28 28 29 28 27 26 25 25 26
3 4 5 7 9 11 12 13 14 16 17 19 21 23 24 25 27 28 28 28 28 28 28 29 29 29 28 29 30 31 31 31 31 31 31 31 31 30 30 30 29 29 28 27 27 26 26 25 24 24 25 26
3 4 6 9 10 11 13 15 16 17 19 21 22 23 25 26 27 26 26 26 27 27 27 27 27 27 27 29 30 30 30 29 29 29 30 30 30 30 29 28 28 28 28 27 26 25 24 23 22 24 26 26
3 5 7 9 11 13 14 16 17 18 20 21 22 24 25 25 25 24 25 25 26 26 26 26 26 27 28 29 29 28 28 28 27 27 28 28 28 28 27 28 30 30 30 29 27 25 24 23 23 25 27 28
4 6 8 10 12 14 15 17 18 20 21 22 23 23 23 23 23 23 24 24 24 24 25 25 26 27 28 28 27 27 27 27 28 28 29 29 28 29 31 34 35 34 34 32 29 26 25 22 23 25 27 28
6 8 10 11 13 15 16 18 19 20 21 22 22 22 21 21 22 22 23 23 24 24 25 26 27 27 27 27 27 26 27 28 30 31 31 31 32 34 36 37 36 36 34 32 30 27 25 22 22 26 29 27
7 9 11 13 14 15 17 18 19 20 21 21 20 19 20 21 22 22 23 23 24 24 25 26 27 27 27 27 27 27 29 30 32 33 33 34 36 37 36 35 34 34 33 31 30 27 25 23 24 30 30 25
8 10 11 13 14 16 17 17 18 19 19 19 18 19 20 21 21 22 22 23 24 25 26 26 27 27 27 27 27 29 31 32 33 33 35 36 37 36 34 34 33 33 32 30 29 27 25 23 24 33 31 24
8 10 12 13 14 15 16 17 18 18 17 17 18 19 20 20 20 22 23 24 25 26 26 26 26 27 27 28 29 30 30 32 34 34 35 36 36 35 33 34 34 33 32 30 29 27 26 23 23 34 32 25
9 10 11 12 14 15 16 17 17 16 15 16 18 19 19 19 21 22 23 24 25 25 25 26 27 28 28 30 30 30 30 31 33 34 34 32 32 33 33 35 35 34 34 31 30 28 27 26 24 33 34 26
9 10 11 12 13 14 16 16 15 14 15 16 17 18 19 20 21 22 23 24 24 25 26 26 28 28 29 29 29 29 31 32 32 32 32 31 31 32 33 34 35 34 34 32 32 29 27 27 24 31 36 28
9 9 10 11 13 15 16 15 14 14 16 17 17 18 18 19 21 22 23 24 24 25 26 27 27 28 28 28 29 31 32 32 31 31 31 32 33 35 35 36 37 36 35 34 36 32 28 29 26 28 36 31
8 8 9 11 13 15 14 12 12 13 15 16 16 17 18 20 21 23 24 24 24 24 25 26 27 28 27 29 30 31 31 30 30 30 31 34 35 37 37 37 39 39 39 39 38 36 33 35 31 28 35 33
7 8 9 11 12 12 11 10 12 13 14 15 16 18 19 21 23 24 23 22 23 23 25 26 26 27 28 29 30 30 30 29 30 32 33 35 35 36 36 37 39 40 42 42 40 38 33 35 37 34 39 37
6 8 9 10 10 9 9 10 11 12 14 16 17 19 21 22 22 22 21 21 22 24 25 25 26 27 29 29 29 29 29 30 32 34 34 36 35 36 37 37 38 38 40 41 41 41 31 27 32 33 43 43
5 7 8 9 8 8 9 9 11 12 15 17 18 19 20 21 21 20 20 21 23 24 25 25 26 28 29 28 29 29 30 31 33 34 34 36 36 36 37 36 36 36 38 39 39 39 31 22 23 28 40 43
4 6 7 7 7 8 8 9 11 13 16 17 18 19 19 20 19 19 20 22 24 24 24 26 27 28 28 28 29 30 31 33 34 34 34 35 35 36 36 35 35 36 36 36 35 36 32 25 22 29 37 38
4 6 6 7 7 7 7 8 11 14 16 17 18 18 18 18 17 18 21 22 23 23 24 26 27 28 28 28 29 30 32 33 33 34 34 35 35 35 35 35 36 36 35 34 33 32 31 29 27 29 33 35
Wind_Direction
41 36 38 41 43 30 360 349 347 348 349 350 353 355 355 355 355 356 356 356 356 358 2 4 5 4 2 359 356 352 349 345 341 339 336 334 332 330 330 329 328 325 322 319 316 313 311 308 307 305 303 302
43 45 43 28 356 338 337 341 342 344 348 350 354 355 356 357 358 359 1 3 3 5 7 7 5 2 358 354 350 346 343 340 336 335 333 331 330 328 328 327 326 323 321 318 314 312 311 309 308 306 305 304
40 31 345 326 325 328 334 337 340 345 348 351 354 356 359 0 1 3 5 5 2 3 3 1 359 355 350 346 343 340 337 335 333 332 330 329 327 326 326 325 324 323 321 318 314 312 310 310 309 308 307 306
359 338 321 322 324 329 334 337 342 347 350 353 358 0 3 4 3 3 2 359 357 357 355 353 350 345 342 339 337 335 334 332 331 329 328 326 325 325 324 324 324 323 322 320 318 316 315 314 312 312 311 310
336 331 324 326 329 333 335 338 343 348 354 359 2 3 3 4 0 358 356 353 351 349 346 344 341 338 336 334 332 332 330 329 328 326 325 324 323 323 323 323 322 321 321 322 322 322 321 319 317 317 315 313
338 334 330 331 331 333 336 342 350 356 1 1 2 2 360 358 354 353 350 347 344 341 340 337 334 332 331 329 328 327 327 326 325 324 323 323 323 323 323 321 321 321 321 322 322 323 322 322 322 321 319 318
337 336 333 329 328 337 348 356 3 3 1 359 359 358 354 351 348 346 342 339 337 334 332 330 328 327 327 326 325 324 324 324 323 323 323 323 323 323 323 323 324 324 325 324 323 323 323 323 324 323 322 322
336 347 339 335 343 357 5 5 5 1 356 354 353 351 347 342 339 335 332 331 329 327 325 324 324 323 324 324 324 324 325 325 326 327 327 327 328 329 330 332 332 332 332 331 330 329 328 327 326 324 323 322
1 8 355 5 21 20 11 3 359 355 349 347 344 341 337 333 330 327 325 324 324 323 323 324 325 326 327 329 330 331 333 335 337 337 339 340 342 344 346 345 344 342 341 341 340 339 338 335 332 329 327 325
11 4 7 20 25 17 1 352 351 347 341 339 337 334 330 327 324 321 321 323 325 327 329 330 332 334 336 337 338 340 343 344 345 347 349 351 352 354 354 353 351 349 348 348 348 347 345 342 340 337 334 330
6 5 19 19 11 359 344 345 346 340 336 336 333 329 326 323 322 323 326 329 331 334 336 337 339 341 343 343 344 346 348 349 351 353 356 358 358 359 359 358 357 356 354 354 354 353 351 349 347 344 342 338
358 10 14 5 355 346 343 347 342 336 336 334 330 327 325 326 328 331 333 335 337 339 340 342 344 346 347 348 349 351 353 355 357 359 1 3 3 4 5 5 4 3 2 1 1 359 357 355 353 351 348 344
348 6 3 355 351 350 348 343 337 335 334 331 328 327 328 331 334 335 337 338 340 342 343 346 349 350 352 353 354 356 358 0 1 3 5 6 7 8 8 7 7 7 6 5 4 3 2 360 358 356 353 350
342 5 3 353 350 348 343 336 335 334 331 329 329 331 334 336 337 338 339 340 342 345 347 351 353 355 358 358 359 1 4 6 6 7 8 8 9 9 9 9 8 8 7 7 7 6 5 4 3 2 360 358
360 8 358 348 347 342 336 334 335 333 330 331 333 335 338 339 340 340 341 343 346 349 353 356 358 1 3 4 6 7 10 11 9 10 10 10 11 12 13 12 11 11 10 12 12 10 8 7 6 6 5 4
1 353 347 342 340 335 334 335 333 331 332 333 336 338 339 340 341 342 344 348 352 356 360 2 5 7 9 12 12 11 12 13 12 13 14 14 16 16 18 17 17 18 17 17 17 16 15 12 12 11 8 6
341 338 341 338 334 333 332 332 330 331 335 337 339 340 341 341 343 346 350 356 1 4 8 10 12 14 16 18 17 13 12 14 16 18 19 21 22 22 22 24 25 25 24 24 22 22 21 17 17 15 10 8
331 334 335 333 330 331 330 329 332 335 338 340 341 341 342 344 348 354 360 5 9 13 16 18 19 20 21 21 19 17 16 17 21 24 25 26 26 27 27 27 27 26 25 25 25 24 24 20 18 16 10 10
328 331 329 330 330 330 330 332 335 337 340 341 342 343 345 351 358 5 10 15 18 20 22 22 23 24 25 24 23 23 23 23 24 25 26 26 27 28 29 27 26 26 24 23 24 25 27 24 20 17 11 12
324 326 327 328 328 329 331 333 335 338 341 342 343 348 354 3 10 15 19 23 24 25 25 26 27 29 30 29 27 28 28 28 27 25 24 25 26 26 27 26 24 25 24 23 24 27 31 27 22 19 15 19
321 324 325 326 327 328 331 334 337 340 342 344 350 358 7 14 19 23 26 29 28 27 29 30 31 33 33 32 31 31 29 28 27 25 23 23 24 23 23 24 24 24 24 23 24 29 34 31 24 20 22 26
318 321 322 324 326 329 332 336 339 343 346 352 1 9 18 24 28 30 31 31 30 31 32 32 34 35 33 33 32 31 29 27 26 25 24 22 22 21 21 22 22 22 22 24 25 27 33 34 28 21 24 28
315 317 320 323 328 331 334 338 342 347 354 4 13 20 28 32 34 34 33 34 33 34 34 34 35 34 33 33 32 30 29 28 27 25 23 22 21 20 20 21 21 19 18 21 25 28 27 29 31 23 22 26
313 314 319 325 329 333 336 341 346 354 6 16 24 30 34 36 37 37 37 37 36 36 36 35 34 33 33 32 30 29 28 28 27 25 23 21 21 22 22 21 20 19 16 17 22 28 28 25 28 24 21 24
308 311 319 326 331 336 340 346 353 4 17 26 33 37 39 39 41 41 41 40 38 37 36 35 34 33 32 31 30 30 30 29 27 26 26 25 24 23 23 21 19 19 18 19 19 20 24 24 26 23 20 24
300 308 320 329 335 339 342 351 3 14 26 34 39 42 43 43 44 43 42 40 38 38 37 36 35 33 32 32 32 32 31 30 28 27 28 29 29 26 24 23 21 19 19 21 20 17 17 19 19 17 18 25
298 313 327 335 338 341 346 0 16 27 36 43 45 46 45 45 45 44 42 40 39 39 38 36 35 34 34 34 33 32 31 31 30 31 30 30 31 30 28 27 25 24 22 22 21 20 19 14 12 8 9 20
304 323 334 338 341 349 358 13 29 39 46 49 49 48 48 48 47 45 43 41 41 40 39 37 36 36 36 35 35 34 33 33 33 34 33 32 32 32 33 31 28 28 28 26 23 24 22 12 12 7 360 7
316 333 339 341 350 3 13 29 41 48 51 52 51 51 51 50 48 46 44 43 42 41 39 38 38 38 38 37 37 36 35 36 36 36 35 35 33 33 35 35 33 31 31 31 30 28 27 19 10 2 357 360
330 341 343 351 5 17 26 39 50 55 56 55 55 54 54 52 49 46 45 44 42 41 40 39 40 40 39 39 39 40 39 39 39 37 37 36 35 35 34 35 36 36 34 33 33 32 31 28 13 2 3 2
343 347 353 6 17 28 38 47 57 61 60 60 59 58 58 54 50 49 47 46 44 42 42 42 43 42 42 42 42 43 43 42 40 38 38 36 35 35 34 33 34 35 36 34 34 32 28 26 20 11 10 7